WetterOnline ( http://www.wetteronline.de )

Wetter aktuell Lahnstein

Aktuelles Wetter: Andernach (75m)

6-stündlich | Neueste Meldungen
Ortszeit Temperatur Wetter
Do, 15.11. 13:00 7.0° C bedeckt
Do, 15.11. 7:00 6.8° C bedeckt
Do, 15.11. 1:00 7.6° C bedeckt
Mi, 14.11. 19:00 5.0° C wolkig
Mi, 14.11. 13:00 7.0° C bedeckt
Mi, 14.11. 7:00 4.5° C Nebel
Mi, 14.11. 1:00 3.6° C wolkig
Di, 13.11. 19:00 10.2° C leicht bewölkt
Ortszeit Temperatur Wetter
Do, 15.11. 13:00 7.0° C bedeckt
Do, 15.11. 12:40 7.1° C bedeckt
Do, 15.11. 12:30 6.9° C bedeckt
Do, 15.11. 12:20 6.9° C bedeckt
Do, 15.11. 12:10 7.0° C bedeckt
Do, 15.11. 12:00 6.8° C bedeckt
Do, 15.11. 11:50 6.8° C bedeckt
Do, 15.11. 11:30 6.8° C bedeckt
Do, 15.11. 11:00 6.6° C bedeckt
Do, 15.11. 10:30 6.4° C bedeckt
Do, 15.11. 10:00 6.4° C bedeckt
Ortszeit Relative Feuchte Sichtweite
Do, 15.11. 13:00 78% 40 km
Do, 15.11. 7:00 86% 15 km
Do, 15.11. 1:00 90% 14 km
Mi, 14.11. 19:00 97% 13 km
Mi, 14.11. 13:00 93% 11 km
Mi, 14.11. 7:00 99% 0.3 km
Mi, 14.11. 1:00 98% 15 km
Di, 13.11. 19:00 75% 50 km
Ortszeit Relative Feuchte Sichtweite
Do, 15.11. 13:00 78% 40 km
Do, 15.11. 12:40 79% -
Do, 15.11. 12:30 79% 35 km
Do, 15.11. 12:20 79% -
Do, 15.11. 12:10 79% -
Do, 15.11. 12:00 79% 35 km
Do, 15.11. 11:50 79% -
Do, 15.11. 11:30 81% 30 km
Do, 15.11. 11:00 81% 35 km
Do, 15.11. 10:30 82% 30 km
Do, 15.11. 10:00 84% 27 km
Ortszeit Niederschlagsmenge Niederschlagsart
Do, 15.11. 13:00 0.0 l/m2 in 6 Std. -
Do, 15.11. 7:00 0.0 l/m2 in 12 Std. -
Do, 15.11. 1:00 0.0 l/m2 in 6 Std. -
Mi, 14.11. 19:00 0.1 l/m2 in 12 Std. -
Mi, 14.11. 13:00 0.1 l/m2 in 6 Std. Sprühregen
Mi, 14.11. 7:00 0.0 l/m2 in 12 Std. -
Mi, 14.11. 1:00 0.0 l/m2 in 6 Std. -
Di, 13.11. 19:00 0.1 l/m2 in 12 Std. Regen
Ortszeit Niederschlagsmenge Niederschlagsart
Do, 15.11. 13:00 0.0 l/m2 in 1 Std. -
Do, 15.11. 12:40 keine Meldung -
Do, 15.11. 12:30 0.0 l/m2 in 1 Std. -
Do, 15.11. 12:20 keine Meldung -
Do, 15.11. 12:10 keine Meldung -
Do, 15.11. 12:00 0.0 l/m2 in 1 Std. -
Do, 15.11. 11:50 keine Meldung -
Do, 15.11. 11:30 0.0 l/m2 in 1 Std. -
Do, 15.11. 11:00 0.0 l/m2 in 1 Std. -
Do, 15.11. 10:30 0.0 l/m2 in 1 Std. -
Do, 15.11. 10:00 0.0 l/m2 in 1 Std. -
Ortszeit Stärke Spitze Richtung
km/h Bft. km/h Grad Sektor
Do, 15.11. 13:00 9 2 20 160° S
Do, 15.11. 7:00 9 2 19 120° SO
Do, 15.11. 1:00 11 2 18 150° SO
Mi, 14.11. 19:00 9 2 17 110° O
Mi, 14.11. 13:00 0 0 11 - -
Mi, 14.11. 7:00 0 0 11 - -
Mi, 14.11. 1:00 4 1 18 290° W
Di, 13.11. 19:00 13 3 46 220° SW
Ortszeit Stärke Spitze Richtung
km/h Bft. km/h Grad Sektor
Do, 15.11. 13:00 9 2 20 160° S
Do, 15.11. 12:40 13 3 - 120° SO
Do, 15.11. 12:30 13 3 19 130° SO
Do, 15.11. 12:20 13 3 - 130° SO
Do, 15.11. 12:10 11 2 - 120° SO
Do, 15.11. 12:00 11 2 19 130° SO
Do, 15.11. 11:50 11 2 - 130° SO
Do, 15.11. 11:30 11 2 18 120° SO
Do, 15.11. 11:00 11 2 18 120° SO
Do, 15.11. 10:30 11 2 18 120° SO
Do, 15.11. 10:00 9 2 20 130° SO
Ortszeit Untergrenze Bedeckung Gattung
total tief tief mittel hoch
Do, 15.11. 13:00 450 m 8/8 8/8 - - -
Do, 15.11. 7:00 330 m 8/8 8/8 - - -
Do, 15.11. 1:00 300 m 8/8 8/8 - - -
Mi, 14.11. 19:00 <30 m 8/8 1/8 - - -
Mi, 14.11. 13:00 90 m 8/8 8/8 - - -
Mi, 14.11. 7:00 30 m 8/8 8/8 - - -
Mi, 14.11. 1:00 10500 m 7/8 0/8 - - -
Di, 13.11. 19:00 1500 m 3/8 3/8 - - -
Ortszeit Bedeckungsgrad in Achtel und Wolkenuntergrenze
Do, 15.11. 13:00 8(450m)
Do, 15.11. 12:40 8(420m)
Do, 15.11. 12:30 8(420m)
Do, 15.11. 12:20 8(420m)
Do, 15.11. 12:10 8(420m)
Do, 15.11. 12:00 8(420m)
Do, 15.11. 11:50 8(420m)
Do, 15.11. 11:30 8(390m)
Do, 15.11. 11:00 8(390m)
Do, 15.11. 10:30 8(360m)
Do, 15.11. 10:00 8(360m)
Ortszeit Luftdruck NN (hPa) Tendenz (hPa in 3 Std.)
Do, 15.11. 13:00 1028 - 0,6
Do, 15.11. 7:00 1028 - 0,1
Do, 15.11. 1:00 1028 0,0
Mi, 14.11. 19:00 1029 - 0,1
Mi, 14.11. 13:00 1030 - 0,8
Mi, 14.11. 7:00 1031 - 0,8
Mi, 14.11. 1:00 1031 + 0,4
Di, 13.11. 19:00 1029 + 2,5
Ortszeit Luftdruck NN (hPa) Tendenz (hPa in 3 Std.)
Do, 15.11. 13:00 1028 - 0,6
Do, 15.11. 12:40 1028 keine Meldung
Do, 15.11. 12:30 1028 - 0,4
Do, 15.11. 12:20 1028 keine Meldung
Do, 15.11. 12:10 1028 keine Meldung
Do, 15.11. 12:00 1028 - 0,1
Do, 15.11. 11:50 1028 keine Meldung
Do, 15.11. 11:30 1029 + 0,3
Do, 15.11. 11:00 1029 + 0,5
Do, 15.11. 10:30 1029 + 0,7
Do, 15.11. 10:00 1029 + 0,9
Ortszeit Schneehöhe (cm)
Do, 15.11. 13:00 0
Do, 15.11. 7:00 0
Do, 15.11. 1:00 0
Mi, 14.11. 19:00 0
Mi, 14.11. 13:00 0
Mi, 14.11. 7:00 0
Mi, 14.11. 1:00 0
Di, 13.11. 19:00 0
Ortszeit Schneehöhe (cm)
Do, 15.11. 13:00 0
Do, 15.11. 12:40 0
Do, 15.11. 12:30 0
Do, 15.11. 12:20 0
Do, 15.11. 12:10 0
Do, 15.11. 12:00 0
Do, 15.11. 11:50 0
Do, 15.11. 11:30 0
Do, 15.11. 11:00 0
Do, 15.11. 10:30 0
Do, 15.11. 10:00 0
Link zu dieser Seite / Seite empfehlen

Das Wetter in ...